Theta_e
333 337 343 343 343 343 343 343 343 343 344 342 341 340 338 337 334 334 332 332 332 331 331 329 329 327 327 327 329 331 332 330 335 334 337 337 337 336 335 336 337 337 341
332 340 341 344 343 343 342 342 343 342 342 340 339 337 336 335 334 332 331 330 330 330 329 328 327 326 325 324 324 326 328 326 334 334 332 332 334 334 333 333 334 335 338
332 339 340 342 343 343 342 342 341 340 340 339 337 336 335 333 331 330 329 328 328 328 327 327 326 325 323 323 322 322 324 323 328 329 327 329 329 331 331 330 329 331 333
330 338 338 339 341 341 340 340 339 338 337 336 335 334 332 331 329 328 327 326 326 325 325 325 324 323 321 320 320 319 320 321 323 322 324 324 325 327 328 328 327 326 328
325 329 333 337 338 338 337 337 336 335 334 333 332 332 330 328 327 326 325 324 323 323 323 323 321 320 319 319 319 318 318 318 315 314 316 319 323 324 325 325 324 323 324
322 323 327 331 333 334 334 333 332 331 331 330 329 328 327 325 323 322 321 321 321 321 321 320 319 319 318 318 318 317 316 316 309 309 312 314 317 323 324 323 323 323 322
320 321 321 325 325 326 326 325 325 325 325 324 322 321 320 318 318 317 315 316 317 318 318 318 318 318 317 318 317 317 315 314 306 305 310 312 314 323 323 323 322 322 322
319 318 318 317 318 318 318 317 317 316 316 315 315 315 315 315 315 315 314 313 315 316 317 317 317 317 317 316 313 313 314 312 303 302 307 310 312 318 322 322 322 322 321
319 317 315 314 313 314 314 314 313 313 312 312 312 311 310 310 311 310 310 311 314 315 315 314 314 314 314 313 310 310 310 310 303 300 302 306 310 317 320 323 322 322 321
316 315 313 312 311 310 310 310 310 311 311 311 310 310 308 307 307 307 308 310 312 312 312 312 312 312 311 309 307 307 308 305 300 300 301 304 310 315 317 321 322 322 320
309 310 310 310 308 309 308 306 306 306 307 307 307 307 305 304 303 305 306 308 310 309 309 309 310 309 307 302 303 304 304 300 299 300 300 303 309 313 316 318 322 321 321
302 303 303 303 303 304 306 306 305 304 303 303 303 303 303 303 302 303 301 303 304 304 305 307 307 306 301 299 298 299 299 299 299 300 300 304 308 312 315 317 321 322 320
300 301 301 301 302 302 303 304 304 303 303 303 302 302 302 302 301 301 300 300 300 300 299 299 299 299 299 298 298 298 298 298 298 299 299 303 308 311 313 315 319 322 320
297 298 299 299 300 300 302 303 303 303 303 302 302 302 302 301 301 301 300 300 300 299 299 299 299 299 299 298 298 298 298 297 297 298 299 301 305 309 311 314 316 321 320
295 296 296 297 297 298 299 300 301 301 301 301 301 301 301 300 300 300 300 300 300 300 300 299 299 298 298 298 298 297 297 297 298 297 298 299 303 307 311 313 315 320 322
293 293 295 294 294 295 296 297 297 298 298 299 298 298 298 299 299 298 298 299 300 300 300 299 299 298 298 298 298 298 298 298 298 298 298 299 301 305 309 312 314 318 323
290 291 291 290 291 291 292 294 295 295 295 295 295 295 295 297 295 295 296 296 297 298 298 299 299 299 298 298 298 298 298 298 298 298 298 298 299 301 305 309 312 318 321
287 287 288 288 287 288 289 290 292 291 293 292 293 291 292 293 291 291 293 293 296 296 296 296 297 297 298 297 297 298 298 298 298 298 298 298 298 298 301 306 309 316 320
285 285 286 286 286 286 287 287 289 288 290 289 291 288 289 289 288 289 290 292 292 293 294 294 295 295 295 296 297 298 298 297 298 298 298 297 298 298 299 302 306 312 316
284 285 284 285 285 285 286 285 286 286 287 287 289 287 288 288 287 288 288 288 289 290 291 292 292 294 294 294 295 296 298 298 299 297 297 297 297 297 298 300 303 308 312
283 283 283 283 284 284 284 283 283 283 284 285 286 286 286 286 286 286 286 286 287 287 288 289 291 291 292 294 292 294 297 297 296 297 297 296 295 295 297 298 302 305 308
281 282 283 283 283 284 284 283 283 283 284 284 285 285 285 285 286 285 285 285 285 286 285 286 287 288 290 292 289 289 288 293 296 295 294 293 294 294 295 297 299 301 304
280 281 282 282 283 283 283 283 283 283 283 282 283 283 284 284 285 285 284 284 284 285 284 284 285 285 285 287 289 288 284 286 290 294 293 292 293 293 294 295 297 299 301
281 281 281 282 282 283 283 282 280 279 278 281 281 283 283 284 284 284 284 284 283 284 283 283 284 283 284 283 286 288 290 290 285 285 294 292 290 291 293 294 295 296 298
281 280 281 282 282 282 282 281 280 279 280 281 281 281 281 282 283 282 283 282 282 283 283 283 282 282 283 282 283 285 286 288 289 287 284 288 292 292 292 293 294 295 295
280 280 280 281 281 282 281 281 280 279 279 279 279 280 280 281 281 281 281 281 281 281 281 282 282 281 281 282 283 284 284 283 285 286 286 287 289 292 290 291 292 293 294
Wind_Speed
11 14 10 9 7 6 6 7 10 12 15 14 14 14 13 11 12 13 12 12 12 11 11 12 12 12 12 11 10 9 9 10 9 5 8 8 8 7 7 7 7 6 9
12 7 11 9 9 9 9 11 16 16 16 15 15 14 12 13 15 13 13 12 13 13 13 13 12 12 11 11 10 9 8 9 8 5 6 6 7 6 7 8 9 7 7
13 11 10 13 17 15 16 17 16 16 16 17 15 15 15 15 13 13 13 13 13 13 13 13 13 13 12 12 11 9 9 8 7 5 5 3 4 5 6 7 7 8 8
10 11 13 17 21 19 18 19 17 15 15 15 13 14 13 14 14 13 12 12 13 13 13 13 13 14 14 13 12 11 10 9 7 6 3 3 4 5 4 5 7 7 7
13 14 17 21 21 21 21 20 18 17 15 14 14 13 14 13 12 12 13 13 13 13 13 13 13 13 13 13 13 12 10 10 8 5 5 4 4 5 4 4 4 5 5
12 12 18 23 22 21 20 18 17 16 16 15 14 14 13 12 13 13 13 13 13 13 13 13 13 12 12 12 12 12 10 10 8 5 5 5 5 8 6 4 4 4 3
11 10 12 19 18 19 19 18 17 16 16 15 14 13 13 13 13 13 13 14 14 14 14 14 14 13 13 13 13 12 12 11 6 5 5 5 5 10 8 5 5 4 3
8 8 9 12 17 17 17 16 15 14 14 13 12 13 13 13 13 12 13 13 13 14 14 14 14 14 13 13 14 14 13 12 7 6 6 6 8 10 10 6 6 5 3
9 8 9 10 10 13 14 14 12 12 12 11 10 10 11 10 11 11 11 11 12 13 12 12 12 13 13 13 13 12 12 11 7 5 7 5 10 12 12 10 8 7 6
10 10 10 8 7 6 6 11 10 11 12 12 11 11 10 9 10 10 10 11 12 12 12 12 12 12 12 12 12 12 12 10 6 7 5 5 13 14 13 14 10 10 7
9 11 10 10 11 10 7 8 10 11 11 11 10 12 9 6 8 9 11 12 13 12 12 12 11 11 10 9 10 11 10 4 6 5 4 10 13 15 14 15 13 12 10
14 13 11 11 11 9 8 8 7 7 6 7 7 8 6 6 6 8 8 11 11 12 12 13 13 12 9 5 5 8 4 6 5 6 5 12 14 15 15 15 16 15 13
10 10 12 13 11 12 9 7 5 4 4 5 8 8 7 6 6 6 5 5 6 8 5 8 7 5 7 6 6 6 7 7 5 6 8 14 15 16 17 16 18 17 15
10 12 12 12 11 11 6 7 7 6 5 5 6 9 7 5 6 7 5 7 6 4 7 6 4 7 8 8 8 8 8 7 6 5 8 14 17 17 18 18 18 20 17
11 11 13 13 12 11 10 8 8 8 7 8 8 10 8 8 8 7 7 7 7 7 7 7 7 7 8 8 8 8 9 9 9 6 6 13 17 19 19 20 20 22 17
10 11 10 12 12 10 9 10 8 8 8 8 9 10 12 9 9 9 9 9 9 8 8 7 8 8 8 9 10 10 10 9 9 10 7 8 15 18 20 21 21 22 20
8 9 11 10 11 10 9 8 7 7 8 8 8 11 13 11 12 12 9 9 10 10 12 10 10 9 9 9 11 10 10 11 10 11 9 8 10 16 19 20 21 23 22
7 9 9 9 11 11 10 8 7 7 6 7 8 9 13 13 14 12 9 10 11 10 10 10 10 10 10 10 11 10 10 10 12 12 10 10 9 9 12 20 21 23 19
6 8 9 10 12 11 10 8 7 8 7 7 8 8 13 12 14 11 9 10 12 9 9 10 10 11 11 11 11 11 10 11 12 11 13 13 13 11 8 15 19 19 18
7 7 8 8 11 11 7 7 5 6 7 7 7 8 12 10 14 11 10 11 11 9 10 10 13 11 11 11 12 12 11 11 11 10 12 12 12 12 12 12 9 10 15
8 9 10 10 11 9 7 8 6 8 7 8 7 10 9 11 12 12 10 11 11 10 12 13 12 15 11 10 10 11 11 11 14 11 10 9 10 11 11 11 9 8 9
4 5 6 7 8 7 6 5 3 8 4 8 7 10 10 12 12 11 12 11 12 10 13 12 13 12 11 10 11 12 11 11 9 10 7 7 9 6 8 11 12 12 10
4 6 6 7 7 6 8 6 6 5 5 5 9 9 11 14 13 13 13 11 12 11 10 12 12 15 13 11 13 10 10 10 8 6 8 5 7 5 6 8 10 11 12
4 4 5 6 7 8 7 7 9 7 9 8 9 9 10 13 13 14 14 13 13 10 12 11 11 12 13 14 10 10 14 16 16 15 10 6 5 6 7 6 8 10 11
3 4 5 5 6 6 7 7 7 9 8 9 9 12 12 10 12 13 14 14 13 10 12 14 14 13 10 12 12 11 13 13 15 14 16 11 7 7 7 7 8 9 11
3 4 5 6 7 7 7 9 9 11 12 11 11 10 9 9 9 12 13 13 14 13 14 13 15 16 14 14 13 13 13 12 12 11 11 13 15 10 5 6 7 8 9
Wind_Direction
332 323 319 9 43 56 81 93 91 70 63 62 53 49 47 48 46 45 25 26 27 30 29 27 28 31 27 23 21 21 12 360 356 10 20 31 35 32 17 9 7 9 16
309 354 13 31 48 54 69 81 71 63 62 57 54 49 40 33 40 31 30 21 23 21 22 21 18 23 24 18 18 14 17 13 14 37 35 20 22 27 19 14 5 358 352
337 15 23 47 59 56 60 61 62 56 50 46 38 36 37 29 30 27 25 18 20 17 17 18 13 14 15 12 13 10 6 10 19 15 25 20 356 3 11 2 0 355 342
359 30 39 47 56 53 50 53 49 47 51 48 39 33 28 31 20 25 20 18 19 14 14 12 11 8 8 5 6 6 3 360 10 15 358 355 335 329 347 350 347 346 341
26 29 37 44 50 50 44 44 45 40 43 40 35 33 31 26 22 17 15 14 15 10 7 10 8 5 2 1 2 4 0 358 358 353 339 339 330 315 321 335 335 340 342
35 33 41 40 39 43 47 45 41 39 36 36 33 29 28 24 15 15 12 8 7 5 3 4 3 359 357 356 353 358 358 355 354 337 325 327 323 311 297 301 304 309 318
46 33 39 44 39 39 45 38 36 32 33 30 31 26 21 17 14 14 10 5 2 0 359 358 356 353 352 352 353 348 351 351 346 328 316 316 312 310 292 287 285 271 282
54 40 41 38 38 38 38 37 31 30 30 25 19 21 14 6 2 6 5 359 356 355 354 353 351 348 349 351 349 347 345 345 339 323 311 304 300 296 289 265 274 254 265
47 45 41 34 32 29 29 26 21 22 21 18 15 16 11 9 7 0 357 351 348 347 348 348 344 346 346 346 343 340 338 337 329 319 312 303 301 297 288 271 258 244 248
44 41 35 28 26 31 24 17 13 12 13 10 7 7 4 2 358 349 348 342 342 344 341 340 338 342 343 343 337 334 331 328 319 310 301 292 297 294 287 277 251 248 245
34 34 22 18 14 8 11 2 6 6 5 3 359 356 354 352 348 341 340 338 338 337 333 333 335 336 337 332 328 326 325 304 305 296 291 292 294 288 285 277 257 249 238
20 19 18 14 12 8 10 2 2 359 1 0 0 357 355 348 341 342 336 337 339 334 335 333 334 333 331 324 317 320 310 305 297 295 290 294 292 286 283 279 267 247 239
23 21 16 11 9 15 7 1 3 0 3 6 8 4 353 349 348 348 339 339 337 335 332 331 328 326 322 322 321 316 314 311 303 295 286 285 286 283 277 274 269 254 237
22 19 12 12 14 12 7 16 11 16 12 14 8 8 3 357 349 342 334 329 322 326 318 316 312 308 308 306 304 304 303 299 295 292 289 284 282 279 275 269 264 259 240
27 15 13 13 12 6 12 8 11 12 13 9 15 13 8 3 356 343 339 330 324 324 318 317 312 308 307 301 296 289 290 289 285 280 282 282 281 281 276 268 261 256 252
21 16 7 17 11 9 12 10 12 12 10 20 18 12 11 6 1 353 342 338 332 332 319 311 304 303 301 296 295 289 281 279 275 277 274 275 267 271 273 271 261 257 240
20 13 19 19 9 13 9 11 11 12 16 18 13 11 9 10 2 353 344 340 338 332 325 317 307 299 293 292 289 289 287 281 280 275 270 267 269 259 261 267 263 261 256
25 22 17 13 10 7 4 359 4 7 12 14 13 7 7 8 1 351 343 339 336 330 330 325 320 310 302 297 296 290 284 281 278 276 273 266 258 255 251 251 257 261 233
25 21 19 13 11 0 355 352 353 360 9 8 10 6 2 2 357 352 341 335 333 329 329 328 322 315 306 301 294 291 284 282 280 274 268 263 257 251 243 245 246 257 241
24 18 17 11 9 2 356 350 354 3 356 0 5 359 357 354 350 346 341 338 334 330 328 325 318 312 304 298 295 290 281 272 270 264 262 262 252 245 243 237 233 236 220
25 19 15 11 5 6 4 358 353 352 335 347 352 345 345 345 342 338 339 332 332 330 326 323 317 316 312 309 300 292 282 269 262 261 257 253 261 257 245 235 225 223 220
12 7 7 7 1 6 5 353 331 325 322 324 339 335 339 337 333 330 330 326 328 321 324 325 322 316 309 311 301 301 298 295 256 250 256 245 247 243 248 240 230 220 213
358 354 350 351 350 354 355 345 340 324 326 329 336 329 332 329 324 325 323 319 319 318 317 320 321 319 310 307 298 284 293 273 320 285 251 240 244 231 228 234 229 224 217
319 321 337 340 346 352 341 346 351 336 326 322 315 315 318 320 319 323 321 320 318 315 310 309 314 312 308 305 299 287 278 275 280 286 258 254 249 240 235 220 223 222 218
307 315 323 322 318 321 333 337 331 323 314 312 307 313 314 313 314 313 313 314 314 311 307 305 307 303 297 294 292 290 277 281 272 269 276 260 248 239 231 224 212 210 209
300 318 325 331 333 332 326 318 314 316 317 317 319 315 311 311 311 309 311 311 308 306 306 306 303 299 296 290 286 283 276 276 281 274 270 264 257 242 218 219 214 208 202